TimeMST,TemperatureF,Dew PointF,Humidity,Sea Level PressureIn,VisibilityMPH,Wind Direction,Wind SpeedMPH,Gust SpeedMPH,PrecipitationIn,Events,Conditions,WindDirDegrees,DateUTC
12:15 AM,68.0,35.6,30,29.84,10.0,South,5.8,-,N/A,,Mostly Cloudy,180,2013-03-04 07:15:00
12:35 AM,66.2,35.6,32,29.84,10.0,South,11.5,-,N/A,,Mostly Cloudy,170,2013-03-04 07:35:00
12:55 AM,66.2,35.6,32,29.85,10.0,SSW,11.5,-,N/A,,Clear,200,2013-03-04 07:55:00
1:15 AM,66.2,35.6,32,29.85,10.0,South,10.4,-,N/A,,Partly Cloudy,190,2013-03-04 08:15:00
1:35 AM,66.2,35.6,32,29.86,10.0,South,10.4,-,N/A,,Scattered Clouds,170,2013-03-04 08:35:00
1:55 AM,64.4,35.6,34,29.85,10.0,South,13.8,-,N/A,,Mostly Cloudy,180,2013-03-04 08:55:00
2:15 AM,64.4,35.6,34,29.85,10.0,SSW,11.5,-,N/A,,Clear,200,2013-03-04 09:15:00
2:35 AM,64.4,35.6,34,29.84,10.0,SW,13.8,23.0,N/A,,Clear,220,2013-03-04 09:35:00
2:55 AM,64.4,35.6,34,29.84,10.0,SSW,12.7,-,N/A,,Clear,200,2013-03-04 09:55:00
3:15 AM,62.6,35.6,37,29.84,10.0,SSW,13.8,-,N/A,,Clear,210,2013-03-04 10:15:00
3:35 AM,62.6,35.6,37,29.85,10.0,SSW,9.2,19.6,N/A,,Clear,210,2013-03-04 10:35:00
3:55 AM,60.8,35.6,39,29.86,10.0,Calm,Calm,-,N/A,,Clear,0,2013-03-04 10:55:00
4:15 AM,59.0,35.6,42,29.86,10.0,SE,5.8,-,N/A,,Clear,140,2013-03-04 11:15:00
4:35 AM,59.0,35.6,42,29.87,10.0,Calm,Calm,-,N/A,,Clear,0,2013-03-04 11:35:00
5:15 AM,57.2,35.6,44,29.87,10.0,NE,4.6,-,N/A,,Clear,40,2013-03-04 12:15:00
5:35 AM,55.4,35.6,47,29.88,10.0,Calm,Calm,-,N/A,,Clear,0,2013-03-04 12:35:00
5:55 AM,55.4,35.6,47,29.89,10.0,East,4.6,-,N/A,,Clear,90,2013-03-04 12:55:00
6:15 AM,53.6,35.6,51,29.90,10.0,ENE,5.8,-,N/A,,Partly Cloudy,60,2013-03-04 13:15:00
6:35 AM,53.6,35.6,51,29.90,10.0,ENE,8.1,-,N/A,,Clear,70,2013-03-04 13:35:00
6:55 AM,53.6,35.6,51,29.91,10.0,East,8.1,-,N/A,,Partly Cloudy,80,2013-03-04 13:55:00
7:15 AM,53.6,35.6,51,29.91,10.0,North,4.6,-,N/A,,Clear,360,2013-03-04 14:15:00
7:35 AM,53.6,35.6,51,29.93,10.0,Calm,Calm,-,N/A,,Partly Cloudy,0,2013-03-04 14:35:00
7:55 AM,55.4,37.4,51,29.93,10.0,Calm,Calm,-,N/A,,Mostly Cloudy,0,2013-03-04 14:55:00
8:15 AM,55.4,37.4,51,29.94,10.0,Calm,Calm,-,N/A,,Partly Cloudy,0,2013-03-04 15:15:00
8:35 AM,57.2,37.4,48,29.95,10.0,Calm,Calm,-,N/A,,Clear,0,2013-03-04 15:35:00
8:55 AM,57.2,37.4,48,29.95,10.0,NNW,3.5,-,N/A,,Clear,340,2013-03-04 15:55:00
9:15 AM,59.0,37.4,45,29.97,10.0,NW,3.5,-,N/A,,Clear,320,2013-03-04 16:15:00
9:55 AM,62.6,37.4,39,29.98,10.0,Calm,Calm,-,N/A,,Clear,0,2013-03-04 16:55:00
10:15 AM,64.4,37.4,37,29.98,10.0,North,3.5,-,N/A,,Clear,350,2013-03-04 17:15:00
10:35 AM,66.2,37.4,35,29.98,10.0,North,9.2,-,N/A,,Clear,360,2013-03-04 17:35:00
10:55 AM,68.0,37.4,33,29.98,10.0,NNW,12.7,-,N/A,,Clear,340,2013-03-04 17:55:00
11:15 AM,68.0,37.4,33,29.98,10.0,NNW,13.8,19.6,N/A,,Clear,340,2013-03-04 18:15:00
11:55 AM,71.6,37.4,29,29.98,10.0,NNW,15.0,-,N/A,,Clear,340,2013-03-04 18:55:00
12:15 PM,71.6,35.6,27,29.97,10.0,NNW,15.0,20.7,N/A,,Clear,340,2013-03-04 19:15:00
12:35 PM,71.6,35.6,27,29.96,10.0,NNW,15.0,20.7,N/A,,Clear,340,2013-03-04 19:35:00
12:55 PM,73.4,35.6,25,29.96,10.0,NNW,16.1,21.9,N/A,,Clear,340,2013-03-04 19:55:00
1:15 PM,73.4,33.8,23,29.95,10.0,NNW,17.3,24.2,N/A,,Clear,340,2013-03-04 20:15:00
1:35 PM,73.4,33.8,23,29.94,10.0,NNW,18.4,23.0,N/A,,Clear,340,2013-03-04 20:35:00
1:55 PM,73.4,33.8,23,29.93,10.0,NNW,19.6,23.0,N/A,,Clear,340,2013-03-04 20:55:00
2:15 PM,75.2,32.0,21,29.93,10.0,NNW,12.7,19.6,N/A,,Clear,340,2013-03-04 21:15:00
2:35 PM,75.2,35.6,24,29.93,10.0,NNW,16.1,-,N/A,,Clear,340,2013-03-04 21:35:00
2:55 PM,75.2,35.6,24,29.93,10.0,NNW,18.4,-,N/A,,Clear,340,2013-03-04 21:55:00
3:15 PM,75.2,35.6,24,29.93,10.0,NNW,19.6,-,N/A,,Clear,340,2013-03-04 22:15:00
3:35 PM,75.2,32.0,21,29.94,10.0,NNW,17.3,-,N/A,,Clear,330,2013-03-04 22:35:00
3:55 PM,75.2,33.8,22,29.94,10.0,NNW,17.3,21.9,N/A,,Clear,340,2013-03-04 22:55:00
4:15 PM,75.2,32.0,21,29.94,10.0,NNW,15.0,-,N/A,,Clear,330,2013-03-04 23:15:00
4:35 PM,75.2,32.0,21,29.94,10.0,North,17.3,-,N/A,,Clear,350,2013-03-04 23:35:00
4:55 PM,75.2,28.4,18,29.94,10.0,North,13.8,-,N/A,,Clear,350,2013-03-04 23:55:00
5:15 PM,75.2,28.4,18,29.94,10.0,North,15.0,19.6,N/A,,Clear,350,2013-03-05 00:15:00
5:35 PM,75.2,28.4,18,29.94,10.0,North,13.8,-,N/A,,Clear,350,2013-03-05 00:35:00
5:55 PM,75.2,26.6,17,29.95,10.0,NNW,11.5,-,N/A,,Clear,340,2013-03-05 00:55:00
6:15 PM,73.4,26.6,18,29.95,10.0,North,8.1,-,N/A,,Clear,360,2013-03-05 01:15:00
6:35 PM,73.4,26.6,18,29.96,10.0,North,9.2,-,N/A,,Clear,350,2013-03-05 01:35:00
6:55 PM,71.6,28.4,20,29.98,10.0,NNE,3.5,-,N/A,,Clear,30,2013-03-05 01:55:00
7:35 PM,69.8,28.4,21,29.99,10.0,North,6.9,-,N/A,,Clear,10,2013-03-05 02:35:00
7:55 PM,68.0,28.4,23,30.00,10.0,North,3.5,-,N/A,,Clear,10,2013-03-05 02:55:00
8:15 PM,68.0,28.4,23,30.01,10.0,NNE,6.9,-,N/A,,Clear,20,2013-03-05 03:15:00
8:35 PM,68.0,28.4,23,30.01,10.0,NNE,6.9,-,N/A,,Clear,20,2013-03-05 03:35:00
8:55 PM,66.2,28.4,24,30.02,10.0,Calm,Calm,-,N/A,,Clear,0,2013-03-05 03:55:00
9:15 PM,64.4,28.4,26,30.03,10.0,NE,4.6,-,N/A,,Clear,50,2013-03-05 04:15:00
9:35 PM,64.4,28.4,26,30.04,10.0,ENE,6.9,-,N/A,,Clear,60,2013-03-05 04:35:00
9:55 PM,64.4,28.4,26,30.04,10.0,NE,6.9,-,N/A,,Clear,50,2013-03-05 04:55:00
10:15 PM,64.4,28.4,26,30.04,10.0,North,4.6,-,N/A,,Clear,10,2013-03-05 05:15:00
10:35 PM,62.6,32.0,32,30.04,10.0,North,8.1,-,N/A,,Clear,10,2013-03-05 05:35:00
10:55 PM,62.6,28.4,27,30.04,10.0,NNE,4.6,-,N/A,,Clear,30,2013-03-05 05:55:00
11:35 PM,62.6,30.2,30,30.05,10.0,Calm,Calm,-,N/A,,Clear,0,2013-03-05 06:35:00
11:55 PM,62.6,30.2,30,30.04,10.0,Calm,Calm,-,N/A,,Clear,0,2013-03-05 06:55:00